DW4174 Weather Reports


time (UTC)temp
C
wind
direction
speed
KPH
gust
KPH
rain 1hr
cm
rain 24hr
cm
rain mn
cm
humidity
%
barometer
mb
20260509235633 40 263 12.9 19.3 0.00 0.00 0.00 7 1004.7
20260509234733 40 279 12.9 29.0 0.00 0.00 0.00 8 1004.8
20260509233833 40 298 11.3 29.0 0.00 0.00 0.00 8 1004.8
20260509232933 40 271 12.9 22.5 0.00 0.00 0.00 8 1005.0
20260509232033 40 289 9.7 24.1 0.00 0.00 0.00 8 1005.0
20260509231133 40 283 8.0 24.1 0.00 0.00 0.00 8 1005.0
20260509230233 40 257 12.9 24.1 0.00 0.00 0.00 7 1005.2
20260509225333 41 282 11.3 25.7 0.00 0.00 0.00 7 1005.3
20260509224433 41 265 6.4 16.1 0.00 0.00 0.00 7 1005.3
20260509223533 40 247 6.4 14.5 0.00 0.00 0.00 8 1005.4
20260509221733 40 273 12.9 19.3 0.00 0.00 0.00 8 1005.8
20260509220833 41 274 11.3 24.1 0.00 0.00 0.00 7 1005.9
20260509215033 41 257 12.9 20.9 0.00 0.00 0.00 8 1006.3
20260509213233 40 277 12.9 19.3 0.00 0.00 0.00 7 1006.6
20260509212333 40 265 12.9 24.1 0.00 0.00 0.00 8 1006.8
20260509211433 40 284 9.7 24.1 0.00 0.00 0.00 8 1006.9
20260509205633 40 278 9.7 16.1 0.00 0.00 0.00 9 1007.1
20260509204733 40 282 9.7 24.1 0.00 0.00 0.00 9 1007.3
20260509203833 40 278 9.7 22.5 0.00 0.00 0.00 9 1007.5
20260509202933 40 253 8.0 17.7 0.00 0.00 0.00 9 1007.6
20260509202033 40 252 6.4 17.7 0.00 0.00 0.00 10 1007.7
20260509201133 38 302 6.4 16.1 0.00 0.00 0.00 11 1007.9
20260509200233 38 233 6.4 12.9 0.00 0.00 0.00 10 1008.0
20260509195333 38 254 6.4 17.7 0.00 0.00 0.00 11 1008.1
20260509194433 38 294 4.8 12.9 0.00 0.00 0.00 11 1008.2
20260509192633 36 249 4.8 9.7 0.00 0.00 0.00 12 1008.5
20260509191733 37 237 4.8 12.9 0.00 0.00 0.00 12 1008.6
20260509190833 37 185 4.8 9.7 0.00 0.00 0.00 12 1008.7
20260509185933 36 181 4.8 11.3 0.00 0.00 0.00 13 1008.8
20260509184133 36 186 3.2 14.5 0.00 0.00 0.00 13 1009.1
20260509183233 36 296 3.2 9.7 0.00 0.00 0.00 13 1009.2
20260509182333 35 153 4.8 11.3 0.00 0.00 0.00 14 1009.3
20260509181433 35 169 3.2 11.3 0.00 0.00 0.00 14 1009.5
20260509180533 35 135 3.2 14.5 0.00 0.00 0.00 14 1009.6
20260509175633 34 185 4.8 9.7 0.00 0.00 0.00 14 1009.8
20260509174733 35 163 4.8 12.9 0.00 0.00 0.00 15 1009.9
20260509173833 34 138 3.2 11.3 0.00 0.00 0.00 15 1009.9
20260509172033 33 86 4.8 14.5 0.00 0.00 0.00 16 1010.0
20260509170233 32 100 4.8 11.3 0.00 0.00 0.00 17 1010.0
20260509163532 32 137 3.2 8.0 0.00 0.00 0.00 17 1009.9
20260509162634 31 124 4.8 11.3 0.00 0.00 0.00 19 1009.9
20260509161734 31 96 4.8 12.9 0.00 0.00 0.00 18 1009.9
20260509160832 31 110 3.2 11.3 0.00 0.00 0.00 20 1009.9
20260509155934 31 105 3.2 9.7 0.00 0.00 0.00 20 1010.0
20260509155032 30 110 4.8 11.3 0.00 0.00 0.00 20 1009.9
20260509154132 30 141 4.8 9.7 0.00 0.00 0.00 20 1009.9
20260509153233 29 134 4.8 9.7 0.00 0.00 0.00 20 1010.0
20260509152333 28 109 4.8 12.9 0.00 0.00 0.00 22 1010.0
20260509150532 28 108 4.8 11.3 0.00 0.00 0.00 22 1009.9
20260509145632 27 115 4.8 11.3 0.00 0.00 0.00 24 1009.9
20260509144732 27 105 6.4 11.3 0.00 0.00 0.00 24 1009.9
20260509143832 26 98 4.8 12.9 0.00 0.00 0.00 24 1009.8
20260509142032 26 121 3.2 11.3 0.00 0.00 0.00 25 1009.7
20260509141133 25 157 3.2 6.4 0.00 0.00 0.00 26 1009.6
20260509140232 25 104 3.2 9.7 0.00 0.00 0.00 26 1009.7
20260509135332 24 107 4.8 12.9 0.00 0.00 0.00 27 1009.5
20260509133532 23 120 4.8 9.7 0.00 0.00 0.00 28 1009.4
20260509132633 22 109 3.2 11.3 0.00 0.00 0.00 28 1009.1
20260509131732 22 101 4.8 11.3 0.00 0.00 0.00 29 1009.1
20260509130832 22 95 6.4 11.3 0.00 0.00 0.00 28 1008.9
20260509125932 21 93 4.8 11.3 0.00 0.00 0.00 29 1008.8
20260509125032 21 93 4.8 11.3 0.00 0.00 0.00 29 1008.7
20260509124132 21 96 4.8 9.7 0.00 0.00 0.00 29 1008.6
20260509123232 21 100 4.8 9.7 0.00 0.00 0.00 30 1008.5
20260509122332 21 110 3.2 6.4 0.00 0.00 0.00 30 1008.3
20260509121432 21 111 3.2 6.4 0.00 0.00 0.00 30 1008.2
20260509120532 22 107 1.6 4.8 0.00 0.00 0.00 29 1008.2
20260509115632 22 94 3.2 6.4 0.00 0.00 0.00 29 1008.0
20260509114733 22 95 3.2 6.4 0.00 0.00 0.00 29 1008.0
20260509113832 22 94 3.2 6.4 0.00 0.00 0.00 29 1008.0
20260509112932 22 95 3.2 4.8 0.00 0.00 0.00 30 1008.0
20260509111132 22 96 4.8 6.4 0.00 0.00 0.00 30 1007.9
20260509110232 22 101 4.8 9.7 0.00 0.00 0.00 30 1007.9
20260509105332 22 110 3.2 9.7 0.00 0.00 0.00 32 1007.8
20260509104432 22 106 3.2 6.4 0.00 0.00 0.00 32 1007.8
20260509103532 22 105 1.6 9.7 0.00 0.00 0.00 33 1007.8
20260509102632 22 144 1.6 3.2 0.00 0.00 0.00 33 1007.7
20260509100832 22 0 0.0 0.0 0.00 0.00 0.00 33 1007.6
20260509095932 22 0 0.0 0.0 0.00 0.00 0.00 33 1007.6
20260509095032 22 0 0.0 0.0 0.00 0.00 0.00 33 1007.6
20260509094132 22 0 0.0 0.0 0.00 0.00 0.00 32 1007.7
20260509093232 23 0 0.0 0.0 0.00 0.00 0.00 31 1007.7
20260509092332 23 0 0.0 0.0 0.00 0.00 0.00 30 1007.7
20260509091432 23 0 0.0 0.0 0.00 0.00 0.00 30 1007.8
20260509090532 23 0 0.0 0.0 0.00 0.00 0.00 30 1007.8
20260509085632 24 0 0.0 0.0 0.00 0.00 0.00 29 1007.7
20260509084732 24 0 0.0 0.0 0.00 0.00 0.00 29 1007.7
20260509083832 24 0 0.0 0.0 0.00 0.00 0.00 28 1007.7
20260509082932 25 0 0.0 0.0 0.00 0.00 0.00 27 1007.7
20260509082032 24 0 0.0 0.0 0.00 0.00 0.00 27 1007.5
20260509080232 25 0 0.0 0.0 0.00 0.00 0.00 26 1007.5
20260509075332 25 0 0.0 0.0 0.00 0.00 0.00 25 1007.5
20260509074432 25 0 0.0 0.0 0.00 0.00 0.00 25 1007.5
20260509073532 25 0 0.0 0.0 0.00 0.00 0.00 24 1007.4
20260509071732 25 0 0.0 0.0 0.00 0.00 0.00 23 1007.5
20260509065932 26 0 0.0 0.0 0.00 0.00 0.00 22 1007.4
20260509065032 26 0 0.0 0.0 0.00 0.00 0.00 22 1007.3
20260509064132 26 0 0.0 0.0 0.00 0.00 0.00 22 1007.3
20260509063232 26 0 0.0 0.0 0.00 0.00 0.00 21 1007.3
20260509062332 27 252 1.6 4.8 0.00 0.00 0.00 21 1007.3
20260509061432 27 246 1.6 8.0 0.00 0.00 0.00 21 1007.2
20260509060532 27 240 0.0 4.8 0.00 0.00 0.00 22 1007.3
20260509054732 27 0 0.0 0.0 0.00 0.00 0.00 22 1007.1
20260509053832 27 0 0.0 0.0 0.00 0.00 0.00 23 1007.2
20260509052932 28 0 0.0 0.0 0.00 0.00 0.00 21 1007.1
20260509052032 28 0 0.0 0.0 0.00 0.00 0.00 20 1007.1
20260509051132 29 238 0.0 1.6 0.00 0.00 0.00 19 1007.1
20260509050232 30 238 0.0 8.0 0.00 0.00 0.00 18 1007.1
20260509045332 30 236 1.6 4.8 0.00 0.00 0.00 18 1007.1
20260509044432 30 232 0.0 4.8 0.00 0.00 0.00 18 1007.0
20260509042631 32 242 6.4 12.9 0.00 0.00 0.00 16 1006.9
20260509041732 32 244 6.4 12.9 0.00 0.00 0.00 16 1006.8
20260509040832 32 246 3.2 12.9 0.00 0.00 0.00 16 1006.7
20260509021715 35 257 8.0 14.5 0.00 0.00 0.00 12 1005.4
20260509020815 35 253 8.0 14.5 0.00 0.00 0.00 12 1005.3
20260509014115 36 262 12.9 19.3 0.00 0.00 0.00 11 1005.2
20260509012113 36 261 14.5 20.9 0.00 0.00 0.00 11 1005.2
20260509011213 37 280 14.5 20.9 0.00 0.00 0.00 11 1005.4
20260509010313 37 278 11.3 27.4 0.00 0.00 0.00 11 1005.5
20260509005413 37 253 12.9 19.3 0.00 0.00 0.00 11 1005.4
20260509004513 37 264 12.9 22.5 0.00 0.00 0.00 11 1005.5
20260509003613 37 272 11.3 24.1 0.00 0.00 0.00 11 1005.6
20260509002713 38 268 12.9 22.5 0.00 0.00 0.00 11 1005.7
20260509001813 37 267 14.5 22.5 0.00 0.00 0.00 11 1005.7
20260509000913 37 277 12.9 24.1 0.00 0.00 0.00 11 1005.8